FW8705 Weather Reports


time (UTC)temp
C
wind
direction
speed
KPH
gust
KPH
rain 1hr
cm
rain 24hr
cm
rain mn
cm
humidity
%
barometer
mb
20260508043101 9 0 0.0 3.2 0.18 1.65 1.30 96 1016.3
20260508041603 9 0 0.0 6.4 0.05 1.52 1.19 96 1016.4
20260508040100 9 0 0.0 4.8 0.00 1.47 1.12 96 1016.1
20260508034557 9 0 0.0 1.6 0.00 1.47 1.12 96 1015.9
20260508033058 9 0 0.0 6.4 0.00 1.47 1.12 96 1015.8
20260508031558 9 0 0.0 12.9 0.00 1.47 1.12 96 1015.7
20260508030105 10 348 1.6 12.9 0.00 1.47 1.12 96 1015.6
20260508024552 10 0 0.0 8.0 0.00 1.47 1.12 96 1015.6
20260508023058 10 0 0.0 12.9 0.00 1.47 1.12 96 1015.3
20260508021555 10 0 0.0 3.2 0.00 1.47 1.12 96 1015.3
20260508020100 10 0 0.0 8.0 0.00 1.47 1.12 96 1015.0
20260508014556 10 0 0.0 4.8 0.00 1.47 1.12 96 1015.0
20260508013052 10 0 0.0 6.4 0.03 1.47 1.12 96 1015.0
20260508011555 10 0 0.0 8.0 0.08 1.47 1.12 96 1015.0
20260508010054 10 345 0.0 4.8 0.28 1.47 1.12 96 1015.1
20260508004558 10 0 0.0 8.0 0.94 1.45 1.12 96 1015.1
20260508003106 10 0 0.0 8.0 1.04 1.42 1.09 96 1015.2
20260508001558 11 0 0.0 4.8 1.02 1.37 1.02 97 1015.3
20260508000053 11 0 0.0 9.7 0.84 1.19 0.84 97 1015.2
20260507234557 11 0 0.0 8.0 0.13 0.48 0.15 97 1015.4
20260507233055 11 5 0.0 9.7 0.00 0.36 0.03 96 1015.4
20260507231555 11 0 0.0 4.8 0.00 0.36 0.00 96 1015.3
20260507230055 11 0 0.0 6.4 0.00 0.36 0.00 96 1015.2
20260507224615 11 0 0.0 4.8 0.00 0.36 0.00 96 1015.0
20260507223100 12 0 0.0 1.6 0.00 0.36 0.00 96 1015.0
20260507221554 12 340 0.0 4.8 0.00 0.33 0.00 96 1014.9
20260507220057 12 0 0.0 8.0 0.00 0.33 0.00 96 1015.0
20260507214555 12 0 0.0 6.4 0.00 0.33 0.33 96 1014.7
20260507213053 12 0 0.0 11.3 0.00 0.33 0.33 96 1014.7
20260507211623 12 352 0.0 12.9 0.00 0.33 0.33 96 1014.4
20260507210054 12 0 0.0 1.6 0.00 0.30 0.30 96 1014.1
20260507204604 12 0 0.0 3.2 0.00 0.30 0.30 96 1014.0
20260507203106 12 0 0.0 0.0 0.00 0.30 0.30 96 1014.1
20260507201611 12 0 0.0 12.9 0.00 0.30 0.30 95 1014.1
20260507200103 12 0 0.0 8.0 0.00 0.28 0.28 95 1014.2
20260507194601 13 0 0.0 8.0 0.03 0.28 0.28 94 1014.1
20260507193058 13 0 0.0 1.6 0.28 0.28 0.28 93 1013.6
20260507191603 13 0 0.0 6.4 0.28 0.28 0.28 93 1013.4
20260507190059 13 0 0.0 6.4 0.28 0.28 0.28 91 1013.3
20260507184556 14 9 1.6 8.0 0.25 0.25 0.25 88 1013.4
20260507183058 15 0 0.0 12.9 0.00 0.00 0.00 79 1013.3
20260507181554 16 0 0.0 12.9 0.00 0.00 0.00 79 1013.0
20260507180057 16 324 6.4 20.9 0.00 0.00 0.00 74 1012.2
20260507174557 16 324 1.6 9.7 0.00 0.00 0.00 69 1012.1
20260507173102 17 340 0.0 8.0 0.00 0.00 0.00 66 1011.6
20260507171559 17 0 0.0 14.5 0.00 0.00 0.00 66 1011.5
20260507170059 17 0 1.6 14.5 0.00 0.00 0.00 62 1011.3
20260507164555 18 173 1.6 14.5 0.00 0.00 0.00 61 1011.1
20260507163056 18 167 1.6 14.5 0.00 0.00 0.00 63 1010.7
20260507161601 19 170 1.6 11.3 0.00 0.00 0.00 62 1010.5
20260507160108 19 165 3.2 14.5 0.00 0.00 0.00 61 1010.5
20260507154600 19 0 4.8 16.1 0.00 0.00 0.00 61 1010.6
20260507153101 20 171 8.0 16.1 0.00 0.00 0.00 60 1010.7
20260507151553 20 0 0.0 14.5 0.00 0.00 0.00 62 1010.6
20260507150101 20 197 1.6 16.1 0.00 0.00 0.00 62 1010.6
20260507144603 20 173 3.2 17.7 0.00 0.00 0.00 60 1010.4
20260507143105 20 173 3.2 14.5 0.00 0.00 0.00 61 1010.4
20260507141558 20 172 6.4 20.9 0.00 0.00 0.00 60 1010.4
20260507140110 20 0 1.6 9.7 0.00 0.00 0.00 59 1010.4
20260507134600 20 165 3.2 14.5 0.00 0.00 0.00 59 1010.5
20260507133110 20 169 3.2 12.9 0.00 0.00 0.00 60 1010.6
20260507131604 20 168 4.8 16.1 0.00 0.00 0.00 60 1010.7
20260507130107 20 159 4.8 19.3 0.00 0.00 0.00 60 1010.7
20260507124600 20 179 4.8 14.5 0.00 0.00 0.00 60 1010.6
20260507123100 20 0 3.2 9.7 0.00 0.00 0.00 62 1010.6
20260507121605 20 171 3.2 14.5 0.00 0.00 0.00 62 1010.8
20260507120058 20 213 3.2 11.3 0.00 0.00 0.00 63 1010.8
20260507114556 20 0 0.0 8.0 0.00 0.00 0.00 64 1010.7
20260507113059 20 178 4.8 17.7 0.00 0.00 0.00 64 1010.6
20260507111601 20 0 3.2 17.7 0.00 0.00 0.00 64 1010.6
20260507110106 20 0 0.0 6.4 0.00 0.00 0.00 68 1010.6
20260507104556 18 0 0.0 11.3 0.00 0.00 0.00 71 1010.7
20260507103054 19 186 4.8 14.5 0.00 0.00 0.00 67 1010.7
20260507101606 19 167 1.6 12.9 0.00 0.00 0.00 66 1010.4
20260507094602 19 0 0.0 12.9 0.00 0.00 0.00 69 1010.4
20260507093055 18 193 1.6 12.9 0.00 0.00 0.00 70 1010.4
20260507091604 18 178 0.0 16.1 0.00 0.00 0.00 71 1010.4
20260507090110 18 0 1.6 9.7 0.00 0.00 0.00 71 1010.3
20260507084555 17 164 3.2 16.1 0.00 0.00 0.00 72 1010.1
20260507083101 17 161 3.2 14.5 0.00 0.00 0.00 73 1009.9
20260507081601 17 0 1.6 14.5 0.00 0.00 0.00 74 1009.9
20260507080059 17 0 3.2 14.5 0.00 0.00 0.00 76 1009.9
20260507074600 16 178 1.6 16.1 0.00 0.00 0.00 77 1009.8
20260507073101 16 146 4.8 17.7 0.00 0.00 0.00 78 1009.7
20260507071553 16 185 4.8 16.1 0.00 0.00 0.00 79 1009.5
20260507070137 16 189 6.4 17.7 0.00 0.00 0.00 80 1009.3
20260507064553 16 0 0.0 4.8 0.00 0.00 0.00 82 1009.1
20260507063101 15 188 0.0 12.9 0.00 0.00 0.00 83 1009.1
20260507061556 15 192 3.2 14.5 0.00 0.00 0.00 83 1009.1
20260507060100 15 197 4.8 14.5 0.00 0.00 0.00 83 1009.1
20260507054608 15 187 1.6 11.3 0.00 0.00 0.00 84 1008.8
20260507053054 14 0 0.0 6.4 0.00 0.00 0.00 86 1008.5
20260507051552 13 0 0.0 1.6 0.00 0.00 0.00 89 1008.3
20260507050056 13 0 0.0 1.6 0.00 0.00 0.00 90 1008.3
20260507044559 13 0 0.0 1.6 0.00 0.00 0.00 90 1008.2